When you browse on this site, cookies collect data to enhance your experience and personalize the content and advertising you see.
Visit our Privacy Policy to learn more. By continuing to use the site, you agree to this use of cookies and data.
  • In Latvia
  • List of Countries
  • For 7 days
  • Water Temperature
  • Satellite Maps
  • Weather Map
  • Weather Widgets
  • user-avatar
    Login

    Hourly Weather Linz

    Today, 27 May, Monday

    Time Temperature Precipitation Wind Pressure Humidity
    00:00 +12°C° 0 mm 0 mps 731 mmHg 87%
    01:00 +12°C° 0 mm 0 mps 731 mmHg 88%
    02:00 +12°C° 0 mm 0 mps 731 mmHg 88%
    03:00 +11°C° 0 mm 0 mps 730 mmHg 89%
    04:00 +11°C° 0 mm 0 mps 730 mmHg 89%
    05:00 +13°C° 0 mm 0 mps 730 mmHg 85%
    06:00 +14°C° 0 mm 0 mps 730 mmHg 80%
    07:00 +16°C° 0 mm 0 mps 730 mmHg 76%
    08:00 +17°C° 0 mm 0 mps 730 mmHg 72%
    09:00 +19°C° 0 mm 0 mps 730 mmHg 68%
    10:00 +22°C° 0 mm 1 mps 729 mmHg 63%
    11:00 +23°C° 0 mm 1 mps 729 mmHg 61%
    12:00 +24°C° 0 mm 1 mps 729 mmHg 58%
    13:00 +25°C° 0 mm 1 mps 728 mmHg 55%
    14:00 +24°C° 0 mm 1 mps 728 mmHg 57%
    15:00 +24°C° 0 mm 1 mps 728 mmHg 59%
    16:00 +24°C° 0 mm 1 mps 727 mmHg 62%
    17:00 +22°C° 0.3 mm 1 mps 727 mmHg 69%
    18:00 +21°C° 0.3 mm 1 mps 727 mmHg 76%
    19:00 +20°C° 0.3 mm 1 mps 726 mmHg 83%
    20:00 +19°C° 1.3 mm 1 mps 726 mmHg 87%
    21:00 +18°C° 1.3 mm 1 mps 726 mmHg 90%
    22:00 +16°C° 1.3 mm 1 mps 726 mmHg 94%
    23:00 +16°C° 2.5 mm 1 mps 726 mmHg 95%

    Tomorrow, 28 May, Tuesday

    Time Temperature Precipitation Wind Pressure Humidity
    00:00 +16°C° 2.5 mm 2 mps 726 mmHg 95%
    01:00 +15°C° 2.5 mm 2 mps 725 mmHg 96%
    02:00 +15°C° 1.9 mm 2 mps 725 mmHg 96%
    03:00 +15°C° 1.9 mm 2 mps 725 mmHg 95%
    04:00 +14°C° 1.9 mm 3 mps 725 mmHg 95%
    05:00 +14°C° 2.1 mm 3 mps 725 mmHg 95%
    06:00 +14°C° 2.1 mm 3 mps 725 mmHg 95%
    07:00 +13°C° 2.1 mm 3 mps 724 mmHg 95%
    08:00 +13°C° 1.6 mm 3 mps 725 mmHg 95%
    09:00 +14°C° 1.6 mm 3 mps 725 mmHg 95%
    10:00 +14°C° 1.6 mm 3 mps 725 mmHg 95%
    11:00 +14°C° 1.4 mm 3 mps 725 mmHg 94%
    12:00 +14°C° 1.4 mm 3 mps 725 mmHg 93%
    13:00 +16°C° 1.4 mm 3 mps 725 mmHg 92%
    14:00 +14°C° 1.4 mm 3 mps 726 mmHg 93%
    15:00 +14°C° 1.4 mm 3 mps 726 mmHg 93%
    16:00 +13°C° 1.4 mm 3 mps 726 mmHg 94%
    17:00 +13°C° 1.1 mm 3 mps 727 mmHg 94%
    18:00 +13°C° 1.1 mm 3 mps 727 mmHg 95%
    19:00 +13°C° 1.1 mm 3 mps 728 mmHg 95%
    20:00 +12°C° 1.1 mm 3 mps 728 mmHg 95%
    21:00 +12°C° 1.1 mm 4 mps 729 mmHg 94%
    22:00 +12°C° 1.1 mm 4 mps 730 mmHg 94%
    23:00 +11°C° 0.5 mm 4 mps 730 mmHg 95%

    Day after tomorrow, 29 May, Wednesday

    Time Temperature Precipitation Wind Pressure Humidity
    00:00 +11°C° 0.5 mm 3 mps 730 mmHg 95%
    01:00 +11°C° 0.5 mm 3 mps 730 mmHg 95%
    02:00 +10°C° 0.6 mm 3 mps 730 mmHg 96%
    03:00 +10°C° 0.6 mm 3 mps 731 mmHg 96%
    04:00 +10°C° 0.6 mm 3 mps 731 mmHg 96%
    05:00 +10°C° 0.8 mm 3 mps 731 mmHg 96%
    06:00 +10°C° 0.8 mm 2 mps 731 mmHg 96%
    07:00 +10°C° 0.8 mm 2 mps 732 mmHg 96%
    08:00 +10°C° 0.7 mm 2 mps 732 mmHg 95%
    09:00 +12°C° 0.7 mm 2 mps 732 mmHg 94%
    10:00 +12°C° 0.7 mm 2 mps 733 mmHg 93%
    11:00 +13°C° 0.3 mm 2 mps 733 mmHg 90%
    12:00 +14°C° 0.3 mm 2 mps 733 mmHg 86%
    13:00 +15°C° 0.3 mm 2 mps 733 mmHg 83%
    14:00 +15°C° 0.7 mm 2 mps 733 mmHg 84%
    15:00 +15°C° 0.7 mm 2 mps 733 mmHg 86%
    16:00 +14°C° 0.7 mm 2 mps 733 mmHg 88%
    17:00 +14°C° 0.3 mm 1 mps 734 mmHg 89%
    18:00 +14°C° 0.3 mm 1 mps 734 mmHg 90%
    19:00 +14°C° 0.3 mm 1 mps 734 mmHg 92%
    20:00 +13°C° 0.1 mm 1 mps 734 mmHg 92%
    21:00 +12°C° 0.1 mm 1 mps 735 mmHg 92%
    22:00 +11°C° 0.1 mm 1 mps 735 mmHg 92%
    23:00 +11°C° 0 mm 1 mps 735 mmHg 93%

    30 May, Thursday

    Time Temperature Precipitation Wind Pressure Humidity
    00:00 +11°C° 0 mm 1 mps 735 mmHg 94%
    01:00 +10°C° 0 mm 1 mps 736 mmHg 94%
    02:00 +10°C° 0 mm 1 mps 736 mmHg 95%
    03:00 +10°C° 0 mm 1 mps 736 mmHg 95%
    04:00 +9°C° 0 mm 2 mps 736 mmHg 96%
    05:00 +10°C° 0 mm 2 mps 736 mmHg 95%
    06:00 +12°C° 0 mm 2 mps 736 mmHg 94%
    07:00 +11°C° 0 mm 3 mps 737 mmHg 93%
    08:00 +13°C° 0.1 mm 3 mps 737 mmHg 87%
    09:00 +14°C° 0.1 mm 4 mps 737 mmHg 82%
    10:00 +17°C° 0.1 mm 4 mps 737 mmHg 76%
    11:00 +18°C° 0.1 mm 4 mps 737 mmHg 70%
    12:00 +19°C° 0.1 mm 4 mps 737 mmHg 65%
    13:00 +20°C° 0.1 mm 4 mps 737 mmHg 60%
    14:00 +19°C° 0.1 mm 5 mps 737 mmHg 63%
    15:00 +19°C° 0.1 mm 5 mps 737 mmHg 67%
    16:00 +19°C° 0.1 mm 6 mps 737 mmHg 70%
    17:00 +16°C° 0 mm 5 mps 737 mmHg 75%
    18:00 +15°C° 0 mm 5 mps 737 mmHg 80%
    19:00 +14°C° 0 mm 4 mps 737 mmHg 85%
    20:00 +13°C° 0.1 mm 3 mps 737 mmHg 87%
    21:00 +13°C° 0.1 mm 3 mps 738 mmHg 89%
    22:00 +13°C° 0.1 mm 2 mps 738 mmHg 91%
    23:00 +13°C° 0.2 mm 2 mps 738 mmHg 92%

    31 May, Friday

    Time Temperature Precipitation Wind Pressure Humidity
    00:00 +13°C° 0.2 mm 2 mps 738 mmHg 93%
    01:00 +13°C° 0.2 mm 2 mps 738 mmHg 93%
    02:00 +13°C° 0.1 mm 2 mps 737 mmHg 94%
    03:00 +13°C° 0.1 mm 2 mps 737 mmHg 94%
    04:00 +13°C° 0.1 mm 2 mps 737 mmHg 94%
    05:00 +13°C° 0.1 mm 2 mps 737 mmHg 94%
    06:00 +14°C° 0.1 mm 2 mps 737 mmHg 93%
    07:00 +14°C° 0.1 mm 2 mps 737 mmHg 92%
    08:00 +13°C° 0.1 mm 3 mps 737 mmHg 92%
    09:00 +14°C° 0.1 mm 3 mps 736 mmHg 92%
    10:00 +14°C° 0.1 mm 3 mps 736 mmHg 91%
    11:00 +14°C° 0.2 mm 4 mps 736 mmHg 91%
    12:00 +15°C° 0.2 mm 5 mps 736 mmHg 90%
    13:00 +15°C° 0.2 mm 6 mps 736 mmHg 89%
    14:00 +15°C° 0.2 mm 6 mps 736 mmHg 88%
    15:00 +15°C° 0.2 mm 6 mps 736 mmHg 88%
    16:00 +15°C° 0.2 mm 6 mps 736 mmHg 87%
    17:00 +15°C° 0 mm 5 mps 736 mmHg 88%
    18:00 +14°C° 0 mm 5 mps 736 mmHg 88%
    19:00 +14°C° 0 mm 5 mps 737 mmHg 89%
    20:00 +13°C° 0.1 mm 4 mps 737 mmHg 91%
    21:00 +13°C° 0.1 mm 4 mps 737 mmHg 94%
    22:00 +12°C° 0.1 mm 3 mps 738 mmHg 96%
    23:00 +12°C° 0.4 mm 3 mps 738 mmHg 96%

    1 June, Saturday

    Time Temperature Precipitation Wind Pressure Humidity
    00:00 +12°C° 0.4 mm 2 mps 738 mmHg 96%
    01:00 +12°C° 0.4 mm 2 mps 739 mmHg 96%
    02:00 +10°C° 0.1 mm 2 mps 739 mmHg 96%
    03:00 +10°C° 0.1 mm 2 mps 739 mmHg 96%
    04:00 +9°C° 0.1 mm 3 mps 739 mmHg 96%
    05:00 +9°C° 0 mm 3 mps 740 mmHg 93%
    06:00 +10°C° 0 mm 3 mps 740 mmHg 91%
    07:00 +10°C° 0 mm 3 mps 740 mmHg 89%
    08:00 +12°C° 0.1 mm 3 mps 740 mmHg 81%
    09:00 +13°C° 0.1 mm 3 mps 741 mmHg 73%
    10:00 +14°C° 0.1 mm 3 mps 741 mmHg 65%
    11:00 +16°C° 0 mm 3 mps 740 mmHg 60%
    12:00 +17°C° 0 mm 3 mps 740 mmHg 54%
    13:00 +18°C° 0 mm 3 mps 740 mmHg 49%
    14:00 +18°C° 0 mm 3 mps 740 mmHg 49%
    15:00 +19°C° 0 mm 3 mps 740 mmHg 49%
    16:00 +19°C° 0 mm 3 mps 740 mmHg 48%
    17:00 +18°C° 0 mm 2 mps 740 mmHg 55%
    18:00 +17°C° 0 mm 2 mps 740 mmHg 62%
    19:00 +15°C° 0 mm 1 mps 740 mmHg 69%
    20:00 +13°C° 0 mm 1 mps 740 mmHg 73%
    21:00 +12°C° 0 mm 1 mps 741 mmHg 77%
    22:00 +10°C° 0 mm 1 mps 741 mmHg 82%
    23:00 +9°C° 0 mm 1 mps 741 mmHg 83%
    Show more